Tracking 30995 objects as of 7-Jul-2025
HD Live streaming from Space Station
objects crossing your sky now

COSMOS 2251 DEB

Track COSMOS 2251 DEB now!
10-day predictions


NORAD ID: 34620
Int'l Code: 1993-036WR
Perigee: 684.8 km
Apogee: 811.0 km
Inclination: 74.1 °
Period: 99.6 minutes
Semi major axis: 7118 km
RCS: 0.011 m2 (small)
Launch date: June 16, 1993
Source: Commonwealth of Independent States (former USSR) (CIS)
Launch site: PLESETSK MISSILE AND SPACE COMPLEX (PKMTR)

Note: This is SATELLITE DEBRIS
Your satellite tracking list
Your tracking list is empty




NASA's NSSDC Master Catalog

Two Line Element Set (TLE):
1 34620U 93036WR  25187.31036436  .00004917  00000-0  13389-2 0  9992
2 34620  74.0526 157.1704 0088620 236.8089 122.4549 14.45383081845210
Source of the keplerian elements: AFSPC